Precipitable_Water
0.89 0.92 0.95 0.99 1.03 1.07 1.11 1.15 1.17 1.21 1.22 1.27 1.30 1.32 1.35 1.36 1.34 1.34 1.37 1.35 1.37 1.34 1.36 1.39 1.43 1.42 1.43 1.43 1.40 1.39 1.42 1.45 1.47 1.49 1.49 1.45 1.44 1.41 1.42 1.42 1.37 1.30 1.32 1.34 1.36 1.33 1.28 1.26 1.27 1.30 1.32 1.27 1.26 1.25 1.22 1.19 1.18 1.17 1.15 1.13 1.09 1.10 1.06 1.00 0.90 0.87 0.88 0.89 0.83 0.83 0.84 0.82 0.75 0.73 0.66 0.64 0.61 0.59 0.54 0.50 0.47 0.44 0.44 0.43 0.43
0.83 0.86 0.89 0.92 0.95 1.02 1.08 1.14 1.17 1.19 1.20 1.23 1.26 1.30 1.32 1.34 1.35 1.34 1.31 1.31 1.30 1.32 1.32 1.32 1.41 1.46 1.43 1.39 1.38 1.38 1.41 1.42 1.44 1.47 1.44 1.36 1.36 1.39 1.35 1.34 1.32 1.27 1.27 1.24 1.32 1.29 1.27 1.24 1.28 1.29 1.31 1.27 1.26 1.22 1.22 1.18 1.15 1.12 1.11 1.10 1.07 1.06 1.10 1.01 0.96 0.90 0.83 0.84 0.74 0.77 0.77 0.78 0.68 0.69 0.63 0.58 0.56 0.57 0.51 0.48 0.47 0.45 0.44 0.44 0.42
0.78 0.79 0.81 0.83 0.87 0.94 1.02 1.07 1.12 1.15 1.15 1.19 1.22 1.27 1.30 1.33 1.37 1.34 1.32 1.26 1.27 1.32 1.35 1.36 1.35 1.38 1.37 1.36 1.40 1.41 1.41 1.41 1.44 1.44 1.40 1.35 1.30 1.33 1.36 1.34 1.29 1.28 1.28 1.27 1.29 1.29 1.28 1.28 1.27 1.27 1.28 1.23 1.22 1.20 1.21 1.18 1.15 1.10 1.09 1.10 1.07 1.07 1.08 1.06 0.99 0.91 0.85 0.81 0.82 0.72 0.69 0.71 0.70 0.67 0.64 0.61 0.58 0.55 0.50 0.48 0.45 0.44 0.44 0.45 0.44
0.77 0.77 0.76 0.77 0.80 0.83 0.89 0.98 1.04 1.08 1.10 1.15 1.20 1.27 1.30 1.33 1.35 1.32 1.31 1.30 1.26 1.30 1.32 1.32 1.35 1.36 1.31 1.32 1.36 1.40 1.40 1.41 1.43 1.44 1.38 1.37 1.36 1.30 1.35 1.36 1.31 1.30 1.29 1.29 1.28 1.28 1.28 1.25 1.24 1.25 1.25 1.19 1.17 1.15 1.17 1.16 1.12 1.10 1.09 1.10 1.09 1.08 1.08 1.08 1.04 0.98 0.92 0.83 0.81 0.77 0.73 0.69 0.70 0.70 0.69 0.66 0.60 0.54 0.51 0.51 0.50 0.47 0.45 0.45 0.44
0.75 0.75 0.74 0.73 0.74 0.75 0.79 0.85 0.92 1.00 1.05 1.10 1.15 1.22 1.27 1.31 1.34 1.32 1.28 1.25 1.26 1.29 1.32 1.33 1.30 1.30 1.29 1.33 1.36 1.36 1.37 1.40 1.40 1.39 1.40 1.40 1.35 1.32 1.34 1.33 1.32 1.32 1.32 1.29 1.27 1.25 1.24 1.21 1.22 1.23 1.21 1.15 1.14 1.14 1.16 1.17 1.18 1.15 1.11 1.11 1.10 1.09 1.09 1.07 1.04 1.01 0.98 0.91 0.88 0.85 0.83 0.77 0.75 0.72 0.70 0.64 0.62 0.61 0.59 0.52 0.49 0.48 0.48 0.48 0.48
0.73 0.72 0.72 0.71 0.71 0.71 0.72 0.75 0.80 0.87 0.97 1.05 1.11 1.15 1.20 1.26 1.30 1.32 1.33 1.29 1.29 1.30 1.31 1.31 1.28 1.29 1.29 1.28 1.30 1.35 1.35 1.35 1.36 1.37 1.40 1.45 1.40 1.35 1.35 1.37 1.35 1.33 1.30 1.30 1.29 1.28 1.25 1.23 1.25 1.24 1.19 1.13 1.11 1.11 1.14 1.16 1.19 1.16 1.12 1.11 1.10 1.08 1.06 1.05 1.04 1.00 0.99 0.95 0.89 0.85 0.83 0.78 0.74 0.74 0.72 0.70 0.63 0.58 0.57 0.57 0.55 0.52 0.49 0.49 0.49
0.71 0.70 0.71 0.70 0.69 0.69 0.70 0.71 0.73 0.78 0.86 0.96 1.06 1.11 1.15 1.19 1.24 1.26 1.28 1.27 1.27 1.28 1.32 1.31 1.31 1.31 1.33 1.35 1.37 1.38 1.37 1.36 1.37 1.38 1.39 1.36 1.35 1.35 1.32 1.33 1.33 1.31 1.31 1.32 1.33 1.33 1.32 1.31 1.29 1.26 1.20 1.16 1.12 1.11 1.11 1.12 1.15 1.14 1.14 1.13 1.12 1.08 1.05 1.03 1.01 0.99 0.97 0.95 0.94 0.90 0.85 0.83 0.79 0.75 0.75 0.73 0.69 0.65 0.58 0.55 0.52 0.54 0.52 0.49 0.49
0.70 0.69 0.69 0.68 0.68 0.68 0.69 0.70 0.71 0.74 0.78 0.85 0.97 1.06 1.10 1.13 1.16 1.22 1.26 1.26 1.25 1.26 1.28 1.31 1.33 1.33 1.33 1.32 1.33 1.36 1.35 1.33 1.34 1.37 1.37 1.37 1.35 1.32 1.30 1.27 1.25 1.25 1.27 1.33 1.36 1.34 1.32 1.29 1.28 1.26 1.22 1.21 1.21 1.24 1.28 1.24 1.22 1.20 1.20 1.18 1.14 1.09 1.04 1.03 1.00 0.97 0.95 0.94 0.95 1.00 0.93 0.86 0.82 0.82 0.81 0.79 0.74 0.68 0.63 0.57 0.51 0.52 0.52 0.54 0.54
0.69 0.69 0.68 0.67 0.67 0.68 0.69 0.69 0.69 0.71 0.73 0.77 0.83 0.96 1.05 1.09 1.12 1.16 1.21 1.24 1.27 1.29 1.32 1.32 1.33 1.33 1.35 1.33 1.32 1.34 1.33 1.32 1.34 1.34 1.33 1.31 1.30 1.28 1.26 1.23 1.20 1.18 1.21 1.26 1.30 1.32 1.27 1.24 1.24 1.26 1.29 1.29 1.28 1.28 1.25 1.26 1.20 1.16 1.18 1.19 1.13 1.07 1.05 1.03 1.01 0.98 0.95 0.96 0.94 1.01 0.96 0.88 0.84 0.83 0.81 0.80 0.76 0.72 0.73 0.65 0.57 0.56 0.55 0.54 0.56
0.69 0.68 0.67 0.68 0.69 0.70 0.69 0.68 0.67 0.68 0.69 0.72 0.76 0.83 0.95 1.07 1.12 1.13 1.17 1.21 1.25 1.30 1.32 1.33 1.33 1.33 1.31 1.30 1.30 1.31 1.30 1.31 1.30 1.32 1.32 1.28 1.25 1.21 1.20 1.18 1.14 1.12 1.12 1.14 1.18 1.23 1.25 1.24 1.23 1.26 1.26 1.26 1.25 1.27 1.26 1.24 1.25 1.22 1.19 1.19 1.15 1.11 1.09 1.05 1.00 0.97 0.94 0.90 0.90 0.95 0.95 0.88 0.86 0.87 0.85 0.84 0.84 0.82 0.75 0.69 0.59 0.58 0.56 0.52 0.55
0.68 0.68 0.67 0.69 0.70 0.70 0.70 0.69 0.68 0.66 0.67 0.70 0.73 0.77 0.83 0.97 1.08 1.15 1.18 1.19 1.21 1.26 1.31 1.31 1.32 1.34 1.32 1.28 1.26 1.26 1.28 1.30 1.29 1.27 1.27 1.28 1.25 1.19 1.14 1.11 1.09 1.08 1.07 1.07 1.11 1.16 1.21 1.22 1.22 1.23 1.24 1.22 1.22 1.25 1.25 1.22 1.21 1.22 1.23 1.24 1.24 1.20 1.15 1.09 1.04 1.02 0.97 0.93 0.94 0.97 0.98 0.94 0.94 0.95 0.91 0.89 0.86 0.81 0.74 0.69 0.64 0.61 0.56 0.51 0.49
0.67 0.67 0.69 0.70 0.70 0.70 0.70 0.69 0.68 0.66 0.66 0.67 0.72 0.76 0.80 0.87 0.99 1.10 1.17 1.20 1.20 1.24 1.27 1.30 1.32 1.33 1.33 1.31 1.27 1.26 1.27 1.29 1.28 1.27 1.26 1.26 1.24 1.18 1.14 1.09 1.06 1.06 1.07 1.07 1.09 1.11 1.11 1.13 1.16 1.18 1.18 1.18 1.20 1.21 1.20 1.21 1.21 1.17 1.14 1.14 1.16 1.18 1.18 1.14 1.09 1.07 1.05 0.99 0.96 0.97 1.02 1.00 0.99 0.98 0.94 0.91 0.86 0.82 0.76 0.70 0.65 0.62 0.59 0.56 0.56
0.66 0.67 0.68 0.69 0.70 0.71 0.71 0.69 0.68 0.66 0.66 0.68 0.71 0.75 0.78 0.82 0.90 0.99 1.08 1.19 1.22 1.19 1.23 1.29 1.30 1.31 1.32 1.28 1.24 1.25 1.25 1.26 1.24 1.23 1.24 1.25 1.23 1.16 1.11 1.10 1.06 1.05 1.06 1.08 1.09 1.12 1.14 1.13 1.12 1.18 1.20 1.22 1.20 1.20 1.21 1.18 1.16 1.15 1.12 1.11 1.10 1.10 1.10 1.09 1.11 1.11 1.12 1.06 1.01 1.00 1.03 1.05 1.04 1.04 1.03 0.95 0.92 0.81 0.75 0.68 0.66 0.64 0.63 0.61 0.62
0.63 0.65 0.67 0.68 0.69 0.70 0.70 0.70 0.69 0.68 0.68 0.68 0.70 0.74 0.77 0.79 0.86 0.95 1.04 1.12 1.19 1.21 1.20 1.26 1.30 1.27 1.27 1.25 1.22 1.21 1.21 1.22 1.22 1.22 1.23 1.22 1.19 1.14 1.09 1.08 1.06 1.05 1.06 1.08 1.10 1.14 1.17 1.16 1.12 1.14 1.19 1.20 1.19 1.19 1.16 1.14 1.13 1.11 1.10 1.09 1.07 1.06 1.05 1.05 1.06 1.07 1.09 1.06 1.04 1.01 1.07 1.08 1.06 1.07 1.05 0.98 0.87 0.77 0.72 0.66 0.69 0.67 0.66 0.66 0.73
0.59 0.61 0.64 0.66 0.68 0.68 0.68 0.69 0.69 0.70 0.69 0.68 0.68 0.71 0.75 0.79 0.83 0.90 0.96 1.01 1.07 1.14 1.22 1.22 1.26 1.26 1.26 1.26 1.22 1.17 1.16 1.20 1.23 1.25 1.23 1.20 1.16 1.11 1.08 1.08 1.06 1.04 1.06 1.09 1.11 1.12 1.14 1.16 1.17 1.13 1.19 1.17 1.16 1.15 1.12 1.10 1.08 1.07 1.06 1.04 1.04 1.03 1.03 1.04 1.06 1.07 1.06 1.09 1.08 1.06 1.05 1.08 1.12 1.11 1.05 0.98 0.88 0.82 0.79 0.75 0.75 0.74 0.77 0.79 0.78
0.58 0.59 0.61 0.64 0.65 0.67 0.67 0.67 0.68 0.70 0.69 0.68 0.67 0.68 0.73 0.77 0.81 0.87 0.92 0.97 1.03 1.09 1.12 1.15 1.18 1.18 1.18 1.20 1.17 1.18 1.18 1.19 1.21 1.23 1.21 1.18 1.15 1.09 1.08 1.07 1.03 1.02 1.03 1.05 1.07 1.10 1.15 1.18 1.15 1.14 1.18 1.15 1.12 1.11 1.10 1.09 1.05 1.02 0.99 0.98 0.97 0.98 0.97 0.99 1.00 1.01 1.03 1.04 1.06 1.06 1.04 1.03 1.07 1.08 1.07 1.03 0.96 0.90 0.86 0.86 0.86 0.85 0.84 0.83 0.84
0.56 0.57 0.59 0.61 0.63 0.65 0.67 0.67 0.67 0.68 0.70 0.69 0.67 0.67 0.69 0.75 0.79 0.84 0.87 0.91 0.95 1.00 1.03 1.07 1.12 1.14 1.16 1.18 1.19 1.16 1.17 1.18 1.18 1.18 1.16 1.14 1.12 1.07 1.06 1.04 1.01 0.99 1.00 1.02 1.04 1.06 1.11 1.16 1.12 1.13 1.13 1.11 1.10 1.08 1.07 1.06 1.01 0.97 0.94 0.91 0.91 0.91 0.91 0.94 0.96 0.96 0.95 0.95 0.97 1.02 1.05 1.05 1.06 1.08 1.09 1.08 1.06 1.06 1.00 0.93 0.90 0.93 0.88 0.83 0.85
0.54 0.56 0.57 0.60 0.62 0.64 0.65 0.67 0.67 0.68 0.69 0.69 0.68 0.69 0.70 0.72 0.77 0.82 0.83 0.86 0.89 0.94 0.97 1.00 1.05 1.11 1.13 1.15 1.16 1.16 1.16 1.16 1.20 1.19 1.17 1.13 1.10 1.06 1.05 1.02 0.99 0.98 1.00 1.02 1.04 1.05 1.07 1.08 1.14 1.14 1.17 1.13 1.11 1.08 1.06 1.04 0.99 0.95 0.91 0.86 0.84 0.83 0.85 0.88 0.89 0.89 0.90 0.89 0.89 0.91 0.95 0.98 1.01 1.02 1.02 1.02 1.02 1.02 0.96 0.88 0.91 0.92 0.87 0.86 0.83
0.54 0.55 0.56 0.59 0.61 0.63 0.64 0.66 0.67 0.68 0.68 0.70 0.71 0.70 0.70 0.71 0.73 0.78 0.81 0.84 0.87 0.90 0.94 0.94 0.96 1.02 1.07 1.10 1.12 1.12 1.14 1.18 1.19 1.18 1.18 1.14 1.10 1.08 1.06 1.02 0.98 0.98 1.00 1.01 1.03 1.04 1.05 1.07 1.10 1.12 1.14 1.18 1.13 1.09 1.06 1.05 1.01 0.96 0.92 0.88 0.83 0.82 0.84 0.86 0.85 0.84 0.85 0.85 0.85 0.87 0.90 0.93 0.95 0.96 0.97 0.97 0.98 1.00 1.01 0.97 0.98 0.93 0.87 0.87 0.86
0.55 0.57 0.57 0.58 0.60 0.62 0.64 0.64 0.65 0.67 0.68 0.69 0.71 0.72 0.73 0.73 0.73 0.72 0.75 0.80 0.83 0.86 0.90 0.92 0.95 0.96 1.00 1.05 1.09 1.10 1.11 1.13 1.16 1.13 1.15 1.12 1.09 1.09 1.09 1.04 0.98 0.98 1.00 1.00 0.99 1.00 1.02 1.04 1.06 1.10 1.12 1.14 1.14 1.11 1.08 1.06 1.03 0.99 0.95 0.90 0.85 0.83 0.88 0.87 0.87 0.86 0.84 0.82 0.83 0.87 0.89 0.91 0.92 0.93 0.93 0.93 0.95 0.95 0.95 0.95 0.94 0.91 0.86 0.83 0.80
0.56 0.56 0.56 0.57 0.58 0.59 0.61 0.63 0.63 0.65 0.68 0.69 0.71 0.72 0.73 0.73 0.73 0.72 0.71 0.74 0.77 0.81 0.84 0.86 0.87 0.90 0.94 0.99 1.03 1.06 1.08 1.10 1.13 1.13 1.12 1.11 1.08 1.05 1.08 1.04 1.02 1.01 1.01 0.99 0.97 0.96 0.97 1.00 1.03 1.06 1.10 1.11 1.09 1.08 1.07 1.06 1.04 1.00 0.96 0.91 0.89 0.89 0.90 0.87 0.87 0.87 0.85 0.83 0.82 0.81 0.82 0.84 0.85 0.85 0.85 0.86 0.87 0.88 0.89 0.88 0.87 0.85 0.80 0.74 0.71
0.57 0.55 0.55 0.55 0.56 0.57 0.59 0.60 0.62 0.63 0.65 0.67 0.68 0.70 0.73 0.74 0.74 0.73 0.73 0.72 0.72 0.74 0.79 0.82 0.85 0.91 0.95 0.97 1.01 1.03 1.06 1.08 1.11 1.12 1.10 1.09 1.10 1.05 1.04 1.03 1.03 1.02 1.00 0.99 0.96 0.96 0.97 0.99 1.01 1.03 1.06 1.05 1.04 1.03 1.03 1.03 1.02 0.99 0.97 0.96 0.95 0.93 0.91 0.91 0.89 0.88 0.87 0.85 0.82 0.81 0.81 0.79 0.77 0.77 0.78 0.78 0.79 0.79 0.79 0.78 0.77 0.75 0.73 0.71 0.66
0.54 0.54 0.54 0.53 0.54 0.54 0.56 0.57 0.59 0.60 0.61 0.63 0.65 0.66 0.69 0.71 0.72 0.73 0.73 0.73 0.72 0.72 0.73 0.76 0.78 0.82 0.88 0.91 0.94 0.99 1.02 1.03 1.06 1.09 1.09 1.09 1.03 1.06 1.01 1.02 1.05 1.02 1.00 0.96 0.96 0.97 1.00 1.01 1.01 1.02 1.02 1.02 1.01 1.01 1.01 1.01 1.00 0.99 0.98 0.97 0.96 0.95 0.93 0.89 0.85 0.84 0.83 0.82 0.80 0.78 0.78 0.78 0.76 0.75 0.74 0.73 0.73 0.73 0.72 0.71 0.69 0.67 0.64 0.62 0.59
0.50 0.49 0.49 0.50 0.52 0.52 0.53 0.54 0.56 0.58 0.58 0.59 0.59 0.60 0.62 0.65 0.68 0.70 0.71 0.72 0.72 0.72 0.73 0.73 0.75 0.78 0.81 0.87 0.90 0.93 0.96 0.99 1.01 1.05 1.07 1.07 1.04 1.03 1.01 1.02 1.01 1.01 0.99 0.98 0.99 0.98 0.98 0.99 1.03 1.03 1.02 1.01 1.00 0.99 0.99 0.99 0.99 0.98 0.98 0.96 0.95 0.93 0.89 0.85 0.83 0.81 0.81 0.80 0.79 0.77 0.75 0.76 0.76 0.74 0.73 0.72 0.71 0.69 0.67 0.65 0.63 0.60 0.58 0.56 0.55
0.45 0.46 0.47 0.48 0.48 0.50 0.51 0.51 0.52 0.53 0.55 0.56 0.56 0.57 0.58 0.60 0.61 0.65 0.67 0.69 0.70 0.70 0.72 0.73 0.73 0.75 0.79 0.82 0.86 0.90 0.91 0.92 0.96 1.01 1.03 1.04 1.03 1.02 0.99 1.00 0.98 1.00 0.99 0.99 1.00 1.00 1.00 0.99 0.99 1.00 0.98 0.99 1.00 0.98 0.96 0.96 0.95 0.94 0.94 0.93 0.93 0.90 0.89 0.87 0.85 0.82 0.79 0.78 0.77 0.76 0.75 0.75 0.74 0.73 0.73 0.70 0.68 0.66 0.64 0.62 0.60 0.58 0.59 0.59 0.57
0.41 0.42 0.44 0.46 0.47 0.48 0.48 0.49 0.50 0.51 0.52 0.53 0.53 0.55 0.56 0.57 0.58 0.61 0.64 0.65 0.67 0.68 0.70 0.71 0.72 0.73 0.75 0.79 0.82 0.84 0.87 0.88 0.90 0.94 0.97 0.99 1.00 1.00 1.00 0.97 0.97 0.97 0.98 0.98 0.99 0.99 0.99 0.98 0.99 0.98 0.97 0.96 0.96 0.96 0.95 0.96 0.95 0.94 0.93 0.92 0.90 0.88 0.85 0.83 0.80 0.77 0.75 0.74 0.72 0.70 0.69 0.69 0.68 0.67 0.66 0.64 0.60 0.58 0.58 0.56 0.55 0.53 0.54 0.53 0.51
0.36 0.38 0.40 0.42 0.44 0.45 0.45 0.46 0.47 0.48 0.49 0.49 0.50 0.50 0.51 0.52 0.54 0.56 0.60 0.62 0.63 0.65 0.67 0.69 0.70 0.71 0.72 0.75 0.79 0.83 0.83 0.85 0.87 0.89 0.92 0.93 0.95 0.96 0.97 0.97 0.97 0.96 0.96 0.96 0.97 0.97 0.98 0.98 0.98 0.98 0.97 0.96 0.95 0.94 0.93 0.93 0.92 0.90 0.89 0.87 0.85 0.83 0.81 0.79 0.77 0.74 0.72 0.70 0.69 0.68 0.66 0.65 0.64 0.62 0.58 0.57 0.55 0.55 0.54 0.51 0.50 0.49 0.50 0.51 0.49
0.33 0.33 0.35 0.37 0.40 0.41 0.42 0.43 0.44 0.44 0.46 0.47 0.46 0.47 0.48 0.49 0.49 0.49 0.52 0.56 0.58 0.60 0.62 0.65 0.67 0.68 0.70 0.73 0.75 0.78 0.81 0.83 0.84 0.85 0.88 0.90 0.91 0.92 0.92 0.92 0.92 0.92 0.92 0.93 0.93 0.93 0.93 0.94 0.94 0.93 0.93 0.91 0.90 0.89 0.89 0.89 0.88 0.86 0.85 0.83 0.82 0.81 0.81 0.80 0.80 0.77 0.75 0.73 0.70 0.69 0.67 0.65 0.62 0.61 0.60 0.57 0.55 0.54 0.54 0.52 0.50 0.49 0.49 0.48 0.43
0.30 0.31 0.32 0.34 0.35 0.38 0.39 0.40 0.41 0.42 0.43 0.45 0.46 0.47 0.46 0.47 0.48 0.49 0.51 0.53 0.55 0.56 0.59 0.62 0.66 0.69 0.70 0.71 0.72 0.74 0.77 0.79 0.82 0.86 0.86 0.87 0.88 0.88 0.88 0.89 0.89 0.89 0.89 0.89 0.89 0.89 0.89 0.88 0.87 0.87 0.86 0.85 0.84 0.83 0.83 0.83 0.82 0.82 0.81 0.79 0.78 0.76 0.75 0.74 0.71 0.70 0.69 0.65 0.62 0.60 0.58 0.58 0.56 0.55 0.52 0.50 0.50 0.49 0.51 0.49 0.48 0.45 0.44 0.42 0.38
0.29 0.30 0.31 0.31 0.31 0.33 0.34 0.36 0.37 0.38 0.40 0.41 0.42 0.44 0.48 0.48 0.48 0.48 0.48 0.51 0.53 0.54 0.55 0.57 0.62 0.66 0.68 0.70 0.73 0.72 0.73 0.78 0.82 0.83 0.84 0.85 0.86 0.87 0.87 0.87 0.87 0.87 0.87 0.88 0.87 0.83 0.82 0.81 0.81 0.81 0.81 0.80 0.78 0.77 0.77 0.77 0.76 0.75 0.75 0.74 0.73 0.70 0.68 0.66 0.65 0.64 0.64 0.61 0.60 0.57 0.55 0.53 0.51 0.51 0.49 0.47 0.47 0.47 0.47 0.45 0.43 0.43 0.39 0.37 0.35
0.29 0.30 0.30 0.30 0.30 0.31 0.32 0.33 0.34 0.35 0.36 0.37 0.38 0.40 0.42 0.46 0.47 0.49 0.49 0.50 0.51 0.52 0.53 0.54 0.57 0.61 0.64 0.66 0.70 0.73 0.75 0.77 0.78 0.79 0.80 0.81 0.82 0.83 0.84 0.84 0.84 0.84 0.84 0.82 0.80 0.78 0.77 0.76 0.76 0.77 0.76 0.76 0.74 0.73 0.73 0.72 0.71 0.70 0.69 0.69 0.68 0.67 0.65 0.64 0.63 0.63 0.62 0.60 0.59 0.57 0.56 0.54 0.52 0.51 0.49 0.47 0.45 0.43 0.43 0.43 0.42 0.39 0.37 0.36 0.34
0.29 0.30 0.31 0.31 0.31 0.31 0.32 0.32 0.33 0.33 0.34 0.34 0.35 0.35 0.36 0.38 0.42 0.45 0.46 0.47 0.48 0.50 0.50 0.51 0.53 0.54 0.57 0.61 0.65 0.68 0.71 0.74 0.76 0.77 0.78 0.78 0.79 0.79 0.80 0.80 0.81 0.81 0.81 0.81 0.76 0.74 0.74 0.73 0.73 0.72 0.72 0.70 0.70 0.70 0.69 0.68 0.67 0.66 0.65 0.63 0.62 0.62 0.60 0.58 0.59 0.58 0.56 0.55 0.53 0.52 0.51 0.50 0.48 0.47 0.45 0.43 0.41 0.40 0.38 0.37 0.36 0.35 0.35 0.34 0.33
0.31 0.31 0.32 0.32 0.32 0.32 0.32 0.32 0.32 0.33 0.33 0.33 0.33 0.33 0.33 0.33 0.33 0.36 0.42 0.44 0.44 0.45 0.48 0.50 0.51 0.52 0.54 0.56 0.59 0.62 0.66 0.70 0.72 0.73 0.74 0.75 0.76 0.76 0.76 0.77 0.77 0.77 0.77 0.74 0.72 0.71 0.71 0.70 0.69 0.69 0.69 0.67 0.67 0.67 0.66 0.65 0.63 0.62 0.60 0.58 0.56 0.56 0.56 0.55 0.55 0.53 0.51 0.50 0.49 0.47 0.46 0.45 0.43 0.42 0.40 0.39 0.37 0.35 0.35 0.34 0.34 0.34 0.33 0.31 0.30
0.32 0.32 0.32 0.32 0.32 0.32 0.33 0.33 0.33 0.33 0.34 0.34 0.33 0.33 0.33 0.33 0.33 0.33 0.34 0.36 0.39 0.42 0.45 0.48 0.50 0.50 0.51 0.53 0.55 0.56 0.59 0.63 0.67 0.69 0.71 0.72 0.73 0.74 0.74 0.73 0.74 0.73 0.72 0.69 0.68 0.67 0.68 0.67 0.66 0.66 0.65 0.64 0.63 0.62 0.61 0.60 0.58 0.57 0.55 0.54 0.52 0.52 0.51 0.51 0.49 0.47 0.46 0.45 0.44 0.42 0.41 0.40 0.39 0.37 0.35 0.35 0.34 0.34 0.33 0.32 0.32 0.31 0.30 0.30 0.29
0.34 0.33 0.33 0.33 0.33 0.33 0.34 0.35 0.35 0.35 0.34 0.34 0.33 0.34 0.34 0.34 0.34 0.32 0.32 0.31 0.32 0.34 0.37 0.42 0.46 0.49 0.49 0.49 0.51 0.53 0.54 0.56 0.58 0.61 0.65 0.67 0.68 0.69 0.69 0.68 0.66 0.67 0.67 0.67 0.66 0.64 0.62 0.62 0.61 0.61 0.60 0.58 0.58 0.57 0.56 0.55 0.53 0.52 0.50 0.49 0.48 0.48 0.47 0.46 0.45 0.44 0.43 0.42 0.40 0.38 0.38 0.37 0.36 0.35 0.34 0.33 0.32 0.31 0.31 0.31 0.31 0.31 0.30 0.29 0.29
0.35 0.35 0.35 0.36 0.36 0.36 0.36 0.36 0.36 0.36 0.35 0.35 0.35 0.34 0.35 0.34 0.34 0.33 0.33 0.32 0.32 0.32 0.34 0.38 0.42 0.45 0.47 0.48 0.49 0.49 0.50 0.51 0.52 0.53 0.55 0.58 0.61 0.63 0.59 0.59 0.59 0.59 0.59 0.60 0.60 0.59 0.59 0.58 0.57 0.56 0.56 0.55 0.55 0.53 0.53 0.51 0.50 0.49 0.49 0.47 0.46 0.46 0.45 0.44 0.42 0.41 0.40 0.39 0.37 0.37 0.36 0.35 0.34 0.33 0.33 0.31 0.31 0.30 0.30 0.30 0.30 0.30 0.30 0.29 0.29
0.35 0.35 0.37 0.37 0.37 0.37 0.36 0.36 0.37 0.37 0.36 0.36 0.36 0.36 0.35 0.35 0.35 0.34 0.34 0.33 0.32 0.32 0.32 0.33 0.35 0.37 0.41 0.44 0.46 0.46 0.47 0.48 0.49 0.50 0.50 0.51 0.53 0.54 0.54 0.55 0.55 0.56 0.55 0.55 0.55 0.55 0.54 0.53 0.53 0.53 0.52 0.51 0.52 0.51 0.51 0.49 0.48 0.47 0.47 0.46 0.45 0.43 0.42 0.41 0.40 0.39 0.37 0.36 0.35 0.35 0.34 0.33 0.32 0.32 0.31 0.29 0.29 0.29 0.29 0.29 0.30 0.29 0.29 0.29 0.30
0.35 0.36 0.37 0.38 0.38 0.37 0.36 0.36 0.36 0.36 0.37 0.36 0.37 0.36 0.36 0.35 0.35 0.35 0.34 0.33 0.33 0.32 0.30 0.31 0.31 0.31 0.31 0.35 0.41 0.43 0.44 0.45 0.46 0.46 0.48 0.48 0.48 0.48 0.49 0.49 0.49 0.49 0.50 0.51 0.52 0.51 0.49 0.49 0.50 0.49 0.49 0.50 0.49 0.48 0.47 0.46 0.46 0.45 0.44 0.43 0.42 0.41 0.40 0.39 0.38 0.37 0.35 0.34 0.33 0.33 0.32 0.31 0.31 0.30 0.30 0.29 0.28 0.28 0.28 0.28 0.29 0.29 0.29 0.29 0.28
0.36 0.36 0.37 0.38 0.38 0.37 0.36 0.36 0.36 0.36 0.36 0.36 0.36 0.36 0.34 0.34 0.34 0.34 0.35 0.35 0.34 0.34 0.32 0.32 0.30 0.29 0.30 0.35 0.36 0.39 0.40 0.40 0.41 0.41 0.43 0.44 0.45 0.46 0.46 0.45 0.45 0.45 0.46 0.47 0.48 0.47 0.46 0.46 0.47 0.48 0.48 0.47 0.46 0.45 0.44 0.44 0.44 0.43 0.42 0.41 0.40 0.39 0.37 0.36 0.35 0.34 0.34 0.33 0.32 0.31 0.31 0.30 0.30 0.30 0.30 0.29 0.28 0.28 0.28 0.28 0.28 0.28 0.27 0.27 0.26
0.35 0.36 0.37 0.37 0.38 0.38 0.37 0.36 0.36 0.36 0.35 0.35 0.35 0.35 0.35 0.35 0.35 0.35 0.35 0.34 0.34 0.34 0.34 0.33 0.31 0.30 0.32 0.35 0.34 0.35 0.34 0.36 0.38 0.40 0.41 0.43 0.43 0.44 0.44 0.43 0.43 0.43 0.43 0.44 0.45 0.44 0.44 0.45 0.46 0.45 0.45 0.44 0.43 0.42 0.42 0.42 0.41 0.40 0.39 0.38 0.36 0.35 0.35 0.34 0.33 0.32 0.31 0.31 0.30 0.30 0.30 0.30 0.30 0.29 0.29 0.28 0.28 0.28 0.27 0.27 0.27 0.27 0.27 0.27 0.27
0.31 0.33 0.34 0.36 0.36 0.37 0.37 0.36 0.36 0.35 0.35 0.35 0.35 0.35 0.34 0.34 0.35 0.36 0.36 0.36 0.35 0.35 0.34 0.34 0.33 0.33 0.34 0.35 0.36 0.36 0.35 0.35 0.37 0.38 0.39 0.40 0.41 0.42 0.43 0.42 0.42 0.42 0.43 0.43 0.43 0.44 0.44 0.44 0.43 0.43 0.42 0.42 0.42 0.41 0.41 0.40 0.39 0.38 0.37 0.36 0.35 0.34 0.33 0.33 0.32 0.31 0.31 0.30 0.30 0.29 0.29 0.29 0.29 0.28 0.27 0.27 0.28 0.28 0.28 0.27 0.27 0.27 0.27 0.27 0.27
0.29 0.29 0.31 0.33 0.34 0.35 0.35 0.35 0.36 0.36 0.35 0.35 0.35 0.34 0.34 0.34 0.35 0.36 0.36 0.35 0.36 0.35 0.35 0.35 0.34 0.34 0.34 0.35 0.36 0.36 0.36 0.36 0.37 0.37 0.38 0.39 0.39 0.39 0.41 0.42 0.43 0.43 0.43 0.43 0.43 0.43 0.42 0.42 0.42 0.42 0.41 0.41 0.41 0.40 0.39 0.38 0.38 0.37 0.36 0.34 0.33 0.33 0.32 0.32 0.32 0.31 0.31 0.30 0.29 0.30 0.30 0.30 0.29 0.28 0.28 0.29 0.28 0.28 0.27 0.27 0.26 0.27 0.27 0.27 0.28
0.31 0.31 0.32 0.34 0.35 0.35 0.35 0.36 0.36 0.36 0.35 0.35 0.35 0.36 0.35 0.35 0.35 0.35 0.35 0.35 0.36 0.36 0.35 0.35 0.35 0.35 0.34 0.35 0.37 0.37 0.36 0.36 0.36 0.37 0.37 0.38 0.39 0.39 0.40 0.41 0.42 0.44 0.44 0.45 0.45 0.44 0.44 0.43 0.42 0.42 0.42 0.42 0.41 0.40 0.39 0.38 0.37 0.36 0.35 0.34 0.33 0.32 0.32 0.32 0.32 0.31 0.31 0.30 0.30 0.30 0.30 0.30 0.30 0.29 0.28 0.28 0.27 0.27 0.27 0.27 0.27 0.27 0.28 0.28 0.28
0.30 0.31 0.31 0.31 0.32 0.34 0.36 0.36 0.36 0.36 0.35 0.35 0.35 0.35 0.35 0.35 0.36 0.35 0.35 0.34 0.35 0.37 0.37 0.36 0.35 0.34 0.34 0.36 0.37 0.38 0.37 0.37 0.37 0.37 0.38 0.38 0.39 0.39 0.40 0.42 0.43 0.44 0.44 0.45 0.46 0.46 0.46 0.44 0.44 0.44 0.44 0.43 0.43 0.43 0.41 0.40 0.39 0.36 0.35 0.34 0.33 0.32 0.32 0.31 0.31 0.31 0.31 0.31 0.31 0.31 0.30 0.30 0.29 0.29 0.28 0.27 0.26 0.26 0.26 0.26 0.27 0.27 0.27 0.27 0.28
0.30 0.29 0.29 0.28 0.28 0.28 0.30 0.33 0.34 0.35 0.35 0.34 0.33 0.34 0.34 0.35 0.35 0.35 0.34 0.34 0.35 0.36 0.37 0.36 0.35 0.35 0.35 0.35 0.37 0.38 0.38 0.37 0.37 0.37 0.38 0.39 0.39 0.40 0.41 0.42 0.43 0.43 0.43 0.44 0.45 0.46 0.45 0.45 0.44 0.42 0.41 0.41 0.41 0.41 0.40 0.40 0.39 0.37 0.36 0.35 0.33 0.32 0.32 0.32 0.32 0.32 0.32 0.32 0.31 0.31 0.31 0.30 0.29 0.28 0.28 0.27 0.27 0.26 0.26 0.25 0.26 0.27 0.27 0.27 0.27
0.30 0.29 0.28 0.28 0.27 0.27 0.27 0.30 0.32 0.33 0.32 0.31 0.30 0.31 0.33 0.34 0.35 0.35 0.34 0.35 0.35 0.35 0.36 0.37 0.38 0.37 0.35 0.35 0.36 0.37 0.39 0.38 0.37 0.38 0.38 0.39 0.40 0.41 0.42 0.42 0.43 0.43 0.44 0.44 0.44 0.44 0.44 0.44 0.43 0.42 0.41 0.40 0.40 0.39 0.39 0.39 0.39 0.37 0.36 0.36 0.35 0.34 0.34 0.34 0.34 0.33 0.33 0.33 0.32 0.32 0.31 0.30 0.29 0.28 0.28 0.27 0.27 0.27 0.26 0.26 0.26 0.26 0.27 0.28 0.27
0.26 0.28 0.29 0.29 0.28 0.27 0.27 0.28 0.29 0.30 0.30 0.29 0.30 0.31 0.33 0.34 0.35 0.34 0.35 0.35 0.34 0.35 0.36 0.37 0.38 0.36 0.37 0.37 0.37 0.37 0.38 0.38 0.38 0.38 0.38 0.39 0.39 0.40 0.41 0.43 0.44 0.44 0.44 0.44 0.44 0.43 0.42 0.42 0.42 0.42 0.42 0.41 0.41 0.40 0.38 0.37 0.36 0.37 0.36 0.36 0.36 0.35 0.35 0.35 0.35 0.35 0.35 0.34 0.34 0.32 0.31 0.30 0.29 0.28 0.27 0.27 0.27 0.26 0.26 0.25 0.24 0.25 0.26 0.27 0.27
0.25 0.23 0.26 0.29 0.28 0.27 0.26 0.26 0.27 0.29 0.29 0.28 0.28 0.29 0.31 0.34 0.34 0.35 0.35 0.34 0.35 0.36 0.36 0.37 0.38 0.38 0.40 0.40 0.39 0.38 0.38 0.38 0.39 0.40 0.39 0.39 0.39 0.39 0.39 0.40 0.41 0.43 0.44 0.44 0.44 0.44 0.43 0.42 0.42 0.42 0.41 0.41 0.40 0.39 0.38 0.37 0.35 0.35 0.35 0.35 0.35 0.34 0.35 0.35 0.35 0.36 0.36 0.35 0.34 0.32 0.30 0.29 0.27 0.26 0.26 0.26 0.25 0.24 0.23 0.22 0.22 0.24 0.24 0.26 0.28
0.25 0.21 0.24 0.28 0.27 0.26 0.26 0.25 0.26 0.27 0.29 0.28 0.28 0.29 0.30 0.33 0.34 0.35 0.34 0.34 0.34 0.35 0.36 0.36 0.37 0.38 0.39 0.41 0.41 0.41 0.40 0.41 0.39 0.39 0.39 0.39 0.38 0.38 0.40 0.39 0.39 0.39 0.39 0.40 0.42 0.42 0.43 0.43 0.42 0.41 0.40 0.39 0.38 0.37 0.36 0.35 0.33 0.32 0.33 0.33 0.34 0.34 0.35 0.35 0.35 0.36 0.36 0.35 0.33 0.31 0.29 0.26 0.25 0.24 0.23 0.22 0.21 0.20 0.19 0.18 0.20 0.21 0.23 0.26 0.28
0.21 0.21 0.25 0.27 0.27 0.27 0.27 0.26 0.26 0.27 0.29 0.30 0.29 0.29 0.30 0.31 0.33 0.34 0.33 0.34 0.34 0.35 0.35 0.36 0.36 0.37 0.38 0.38 0.40 0.41 0.41 0.42 0.41 0.40 0.40 0.40 0.39 0.39 0.39 0.39 0.39 0.38 0.38 0.38 0.37 0.38 0.39 0.40 0.40 0.39 0.37 0.35 0.34 0.33 0.33 0.32 0.30 0.30 0.31 0.32 0.32 0.33 0.34 0.35 0.35 0.35 0.35 0.34 0.32 0.30 0.27 0.25 0.24 0.22 0.19 0.17 0.15 0.15 0.15 0.15 0.16 0.19 0.22 0.25 0.27
0.23 0.24 0.27 0.28 0.28 0.28 0.28 0.27 0.26 0.27 0.29 0.31 0.31 0.30 0.30 0.31 0.32 0.34 0.34 0.35 0.34 0.34 0.34 0.35 0.35 0.35 0.35 0.38 0.38 0.39 0.40 0.42 0.42 0.41 0.41 0.41 0.41 0.40 0.39 0.39 0.39 0.38 0.38 0.38 0.37 0.37 0.37 0.38 0.37 0.35 0.33 0.32 0.31 0.31 0.30 0.30 0.29 0.29 0.30 0.31 0.31 0.31 0.32 0.33 0.33 0.33 0.33 0.33 0.31 0.29 0.26 0.24 0.22 0.19 0.16 0.14 0.14 0.14 0.14 0.15 0.15 0.18 0.22 0.25 0.25
Wind_Speed
17 17 18 18 18 19 19 19 19 19 19 19 18 18 18 19 20 20 20 20 20 20 19 19 20 21 22 22 22 23 24 24 24 24 25 25 25 25 25 25 25 24 24 24 24 24 23 23 23 22 22 22 21 20 20 19 19 18 18 17 17 16 16 16 16 14 14 13 13 14 14 14 14 14 14 14 14 15 15 15 15 15 15 15 15
17 17 17 18 18 18 18 19 19 18 17 17 17 17 17 18 18 19 19 20 20 20 19 19 19 20 21 22 22 23 24 24 24 24 25 25 25 25 25 26 26 24 23 24 24 23 23 22 22 22 22 22 21 21 20 20 19 19 19 18 17 17 17 17 17 16 15 14 14 14 15 15 14 14 14 15 15 15 16 16 16 16 16 16 16
17 17 17 18 18 18 18 18 18 18 17 17 16 16 17 18 19 20 20 20 20 19 19 18 19 20 21 22 23 24 24 25 24 24 24 25 25 25 25 26 25 24 24 24 24 23 22 22 22 22 22 22 21 21 21 21 20 20 19 19 18 18 18 18 18 17 16 15 15 15 15 15 15 14 15 15 15 15 16 16 17 17 17 17 17
17 17 17 18 18 17 18 18 18 18 17 17 17 16 16 17 19 20 21 21 20 20 19 19 19 20 21 22 23 24 24 25 25 24 25 25 25 25 25 25 25 25 24 24 23 23 23 22 22 22 22 22 22 22 22 21 21 20 20 19 19 19 19 19 19 18 17 17 16 16 15 16 16 15 15 15 16 16 16 17 17 17 17 17 18
17 17 17 17 17 17 17 18 18 18 18 18 18 17 16 16 18 19 20 20 20 20 20 20 20 21 22 23 23 24 24 25 25 25 25 25 25 25 25 25 25 25 24 24 23 23 22 22 22 22 22 22 22 22 22 22 21 20 20 20 20 19 19 20 19 19 18 18 17 17 16 16 16 16 16 16 16 17 17 17 17 17 18 18 18
17 17 17 17 17 17 17 17 17 18 18 18 18 18 17 17 17 18 19 20 20 21 21 21 22 22 22 23 24 24 24 24 25 25 25 25 25 25 24 24 24 24 24 24 23 23 23 23 22 22 22 22 22 22 22 23 22 21 21 21 20 20 20 20 20 19 19 20 19 18 18 18 17 17 17 17 17 17 17 17 18 18 18 19 19
17 17 17 17 17 18 18 18 18 18 18 18 18 18 18 18 18 18 18 19 20 20 21 22 23 23 23 23 24 24 24 25 25 25 25 25 25 25 24 24 24 24 24 23 23 23 23 23 22 22 22 22 22 22 22 23 23 22 22 21 21 21 21 20 20 20 20 20 20 19 19 19 18 18 18 18 18 18 17 17 17 18 19 19 19
17 17 17 18 18 19 19 19 19 18 18 18 18 18 18 18 18 18 18 18 18 19 20 21 23 23 24 24 24 24 25 25 25 25 25 24 24 24 24 24 24 24 23 23 23 23 23 23 23 22 22 23 23 22 22 22 22 22 22 22 21 21 21 21 21 21 21 20 20 21 20 20 19 19 18 18 18 18 18 18 18 18 19 19 20
18 18 18 18 19 19 19 19 19 19 19 19 18 18 18 18 19 19 19 19 19 19 19 20 22 23 23 24 25 25 25 25 26 26 25 24 24 24 24 24 24 24 24 24 23 23 23 23 23 23 23 23 23 22 22 22 22 22 22 22 22 22 21 21 21 21 21 20 20 21 21 21 20 20 20 19 19 18 18 19 19 19 19 19 20
18 18 18 19 19 20 20 20 20 20 20 19 19 19 19 19 19 19 19 19 19 19 19 20 21 22 23 24 25 26 25 26 26 27 26 25 25 24 24 24 24 24 23 23 24 23 23 23 23 23 23 22 22 22 22 23 23 23 23 23 23 22 22 22 21 21 21 21 21 20 21 22 22 21 21 20 20 19 19 19 20 19 19 19 20
18 19 19 19 20 20 21 21 21 21 20 20 19 19 19 19 19 20 20 20 20 19 20 20 21 22 23 24 25 26 26 26 26 27 27 26 26 25 25 25 24 23 23 23 23 23 23 23 23 23 23 22 22 22 22 22 23 23 22 23 23 23 23 23 22 22 22 22 22 21 21 23 23 22 22 21 21 20 20 20 20 20 20 20 20
18 19 19 19 20 20 21 21 21 21 21 20 20 19 19 18 19 19 20 21 20 20 19 20 20 22 22 23 24 25 26 26 27 27 27 27 27 26 25 25 25 24 23 23 23 23 23 23 22 22 22 22 22 22 22 22 22 21 21 22 22 23 23 23 23 23 23 22 22 22 22 23 23 23 23 22 21 21 21 21 21 21 21 21 21
18 18 19 19 20 20 21 21 21 21 21 20 19 19 19 18 18 18 19 20 21 20 20 19 20 21 22 23 23 24 25 26 27 27 27 28 27 26 26 26 25 24 24 24 24 23 23 23 22 22 22 22 22 22 21 21 21 21 21 21 22 22 23 23 24 24 23 23 23 23 23 23 24 24 24 23 23 22 22 22 22 22 22 22 22
17 18 19 19 20 20 21 21 21 21 20 20 19 19 18 17 17 18 18 19 20 20 20 20 20 21 22 23 23 24 24 25 26 26 26 27 27 26 26 26 25 25 25 25 24 24 24 24 23 23 23 23 22 22 21 21 21 21 21 21 21 22 22 23 23 24 24 24 24 23 23 24 24 24 24 23 23 23 23 23 22 22 22 22 22
17 18 18 19 19 20 20 20 20 20 20 20 19 18 18 17 16 17 17 18 18 19 20 20 21 21 22 23 23 24 24 25 26 26 26 26 27 26 26 26 26 26 25 25 25 24 24 24 24 23 23 23 22 22 21 21 21 21 21 21 21 21 21 22 23 23 24 24 24 24 23 23 24 24 24 23 23 23 23 22 22 22 22 22 22
17 18 18 18 19 19 20 20 20 19 19 19 19 19 18 16 15 15 16 17 18 18 19 20 20 21 22 22 23 24 24 25 26 27 27 28 28 27 27 26 26 26 26 25 24 24 24 25 25 24 24 23 22 22 21 21 21 20 20 20 20 20 20 20 20 20 21 22 23 23 22 22 22 23 23 23 23 22 22 21 21 21 21 21 21
17 17 18 18 18 18 18 19 19 19 19 19 19 18 18 17 15 14 14 15 16 17 18 19 20 21 22 23 24 24 25 25 26 28 28 29 29 28 28 27 27 26 26 25 25 24 24 24 24 24 24 23 23 22 21 21 20 20 19 19 19 19 18 18 18 17 18 18 19 20 20 20 20 21 21 21 21 21 21 21 21 21 22 22 23
18 18 18 18 18 18 18 18 18 18 18 18 18 18 17 17 16 14 13 13 14 16 17 18 19 20 22 23 24 25 25 25 25 27 28 29 29 29 29 28 27 27 26 26 25 25 25 24 24 24 24 23 22 22 22 21 21 20 20 19 19 18 18 18 18 17 17 17 17 17 18 19 19 20 20 20 21 22 22 23 23 23 24 24 25
18 18 18 18 17 17 17 18 18 18 17 17 17 17 16 16 15 14 13 12 13 15 16 17 17 19 20 22 23 24 25 25 25 26 27 29 29 29 29 29 28 27 27 26 25 25 25 25 25 25 25 24 23 23 23 22 21 21 21 20 19 19 19 19 19 18 18 18 17 18 18 18 19 20 20 20 21 23 23 24 24 24 24 25 25
19 18 18 18 17 17 17 18 18 18 17 17 16 16 15 15 14 13 12 12 12 13 14 15 16 17 19 20 22 23 24 25 26 26 27 29 29 29 30 30 29 28 27 26 25 25 25 25 25 25 25 25 24 24 23 22 22 22 21 21 20 20 20 20 20 20 19 19 19 19 19 19 20 20 20 21 21 22 23 23 23 24 24 25 25
18 18 18 18 17 17 17 18 18 18 17 17 16 15 15 14 14 13 12 11 11 12 12 13 14 16 17 18 20 21 23 24 26 26 27 28 29 29 30 30 30 29 28 26 26 25 25 25 25 25 25 25 24 24 23 23 22 22 22 21 21 21 21 21 21 20 20 20 19 19 20 20 20 21 21 21 22 22 23 23 24 24 25 26 26
17 17 17 17 17 17 17 18 18 17 17 16 16 15 15 15 14 14 13 12 11 11 11 12 13 14 15 16 17 19 20 22 24 26 26 27 28 29 29 29 29 30 29 27 26 26 25 25 25 25 25 25 24 24 23 23 23 23 22 22 21 21 21 21 21 20 20 20 19 20 20 20 21 21 22 22 23 23 24 24 25 25 26 26 27
16 16 16 16 16 17 17 17 17 17 17 16 15 15 15 14 14 14 14 13 12 11 11 11 11 13 14 15 16 17 18 19 21 23 25 25 26 27 28 27 28 28 28 27 26 26 25 25 24 24 24 24 24 24 24 23 23 23 22 22 21 21 21 21 21 21 20 20 20 21 21 21 22 22 23 23 24 24 25 25 26 26 26 27 27
16 16 16 16 16 16 16 17 17 17 17 17 16 15 14 14 14 13 13 13 12 12 12 11 11 12 14 15 15 16 17 18 19 20 22 24 25 26 26 27 27 27 27 26 25 25 24 23 23 23 23 23 23 23 23 23 23 22 22 22 22 22 22 22 21 21 21 21 21 21 21 22 22 23 24 24 25 25 26 26 27 27 27 27 28
17 17 17 16 16 16 16 16 16 16 16 16 16 15 15 14 14 13 13 12 12 12 12 11 11 11 12 14 15 16 17 18 18 18 19 21 23 25 26 26 26 26 26 26 25 25 24 23 23 22 21 21 21 21 22 21 21 22 22 22 23 23 23 22 22 22 21 21 22 22 22 23 23 24 24 25 25 26 26 26 26 26 27 27 27
17 17 17 16 16 17 16 16 16 16 16 16 15 15 15 15 14 14 13 12 12 11 12 11 11 10 10 12 14 16 18 18 18 18 19 20 21 23 24 25 25 26 26 26 26 25 24 24 24 23 22 21 21 22 22 21 21 21 22 22 23 23 23 23 22 22 22 22 23 23 23 24 24 24 25 25 25 26 26 26 26 26 26 26 26
17 17 17 17 17 17 16 16 16 16 16 16 15 15 15 15 14 14 14 13 13 12 11 11 11 10 10 10 11 14 16 18 18 19 19 20 21 22 23 24 24 25 25 24 24 24 24 24 24 23 23 22 21 22 22 21 21 22 22 22 23 23 23 23 23 22 23 24 24 25 25 25 24 24 24 24 24 24 24 24 24 24 25 25 25
17 17 17 17 17 17 16 16 16 16 16 16 15 15 15 15 15 14 14 14 14 13 12 12 11 10 10 10 10 10 12 15 17 18 19 19 21 22 23 23 24 24 23 23 23 23 23 23 23 23 22 22 22 22 22 21 22 22 22 22 23 23 24 23 23 23 24 25 25 26 26 25 24 23 23 23 23 23 23 23 23 23 23 24 24
17 17 17 17 17 17 17 16 16 16 16 16 15 15 15 15 15 14 14 14 14 13 13 13 12 11 11 10 10 10 10 11 14 17 18 19 19 20 21 22 22 23 23 22 23 23 23 23 23 22 22 22 22 22 22 22 23 23 22 23 23 24 24 24 24 24 25 25 24 24 24 23 22 21 21 22 22 22 22 22 22 22 22 23 23
17 17 17 17 17 17 16 16 16 16 16 15 15 15 15 14 14 14 14 14 14 13 13 13 13 13 12 11 10 10 9 9 10 12 14 16 17 18 19 20 21 21 21 21 22 22 23 23 22 22 22 22 22 22 23 24 24 24 24 24 25 25 24 25 25 25 25 24 23 22 22 21 21 20 21 21 21 21 21 21 21 21 22 22 23
17 17 17 17 17 16 16 16 16 16 16 16 16 15 15 15 14 14 14 14 14 13 13 13 13 13 13 12 11 10 9 8 7 8 9 11 13 15 16 18 19 20 21 21 22 22 22 22 22 22 22 23 23 23 23 23 24 24 24 24 24 24 23 23 23 23 22 21 21 20 20 20 20 20 20 19 19 19 20 20 20 20 21 21 22
17 17 17 17 17 16 16 16 16 16 16 16 16 16 16 15 15 15 15 15 14 14 13 13 13 13 12 13 13 12 11 10 9 8 7 9 10 12 13 15 16 18 20 21 22 23 23 23 23 23 23 23 23 22 22 22 22 22 22 22 21 21 21 20 20 19 19 18 18 18 18 18 18 18 18 18 18 18 19 19 19 20 21 21 22
17 17 17 17 17 17 16 16 16 16 16 16 16 16 16 16 16 16 15 15 15 14 14 13 13 13 12 12 12 12 12 12 11 10 9 9 10 10 11 12 13 14 16 18 20 21 22 22 22 22 22 22 22 21 21 21 21 20 19 19 19 18 18 17 17 17 16 16 16 17 17 17 17 16 17 17 17 18 18 19 20 20 21 22 23
16 16 17 17 17 17 17 16 16 16 16 15 15 15 16 16 16 16 16 16 16 16 15 14 13 13 13 12 12 12 12 12 12 12 12 11 11 11 11 11 11 12 13 14 15 17 18 18 19 19 19 19 19 19 19 19 18 18 17 17 16 16 16 15 15 15 15 15 16 16 16 16 16 16 17 17 18 19 19 20 20 21 22 22 23
16 16 16 17 17 17 17 17 16 16 16 16 15 15 15 15 16 16 16 17 17 17 16 16 15 15 14 14 14 13 13 13 13 13 13 14 14 14 14 13 13 13 13 13 13 14 14 15 15 16 16 16 16 16 16 16 16 15 15 15 15 15 15 15 15 15 15 15 15 15 15 16 16 16 17 18 18 19 19 20 21 21 22 23 23
17 17 17 17 17 17 16 16 16 16 16 16 15 15 15 16 16 16 16 16 16 17 17 17 17 16 16 16 16 16 15 15 15 15 15 15 16 16 16 15 15 14 14 14 14 13 13 14 14 14 14 14 14 14 14 14 15 15 15 15 15 15 15 15 15 15 15 15 15 15 15 16 16 16 17 17 18 19 19 20 21 21 22 22 23
18 18 18 17 17 17 16 16 15 15 15 15 15 16 16 16 16 16 16 16 16 16 17 17 17 18 18 18 18 18 18 17 17 16 16 16 16 17 16 16 16 16 15 15 15 15 15 14 14 14 14 14 14 14 14 14 15 15 15 15 15 15 15 15 15 15 15 15 15 15 15 15 16 16 17 17 18 19 19 20 20 21 22 23 23
18 18 18 18 17 17 16 16 15 15 15 15 15 15 16 16 17 16 16 16 16 16 16 17 17 18 18 19 19 19 19 19 18 18 17 17 17 17 16 17 17 17 16 16 16 16 16 16 15 15 15 15 15 15 15 15 15 15 15 15 15 15 15 15 15 15 15 15 15 15 15 16 16 17 17 17 18 19 19 20 21 21 22 23 24
18 18 18 18 18 17 16 16 16 15 15 15 15 15 15 16 16 17 17 16 16 16 16 16 17 17 18 18 19 19 19 19 18 18 18 18 17 17 17 17 17 17 17 16 16 16 16 16 16 15 15 15 15 15 15 15 14 14 14 14 14 14 15 15 15 15 15 15 15 15 16 16 16 17 17 18 18 19 19 20 21 22 22 23 24
18 18 18 18 18 17 17 17 16 16 16 15 15 15 15 15 16 16 16 16 16 16 16 16 17 17 17 17 17 17 18 18 18 17 17 17 18 18 17 17 17 17 17 17 16 16 16 16 15 15 15 15 15 15 14 14 14 14 14 15 15 15 15 15 15 15 15 15 15 16 16 16 17 17 18 18 19 19 20 21 21 22 22 23 24
18 18 18 18 18 18 18 17 17 17 16 16 16 16 16 15 15 16 16 15 15 16 16 16 16 17 17 16 16 16 16 17 17 17 17 18 18 18 18 18 18 17 17 17 17 16 16 16 15 15 15 15 15 15 15 15 15 15 15 15 15 15 15 15 15 16 16 16 16 16 17 17 17 18 18 19 19 20 21 21 22 22 23 23 23
18 19 19 18 18 18 18 18 18 18 18 17 17 16 16 16 15 15 15 15 15 15 15 15 15 15 16 16 16 15 15 16 17 18 18 18 18 18 18 18 18 17 17 17 17 17 16 16 16 16 16 16 16 16 16 16 16 16 16 16 16 16 16 16 16 16 17 17 17 17 17 17 18 18 19 19 20 20 21 21 21 22 22 23 23
18 18 19 19 19 19 19 19 19 19 19 19 18 17 16 16 16 15 15 15 14 14 15 15 15 15 14 15 15 15 15 15 16 17 18 18 18 17 18 18 18 17 17 17 17 18 17 17 17 17 17 17 17 17 17 17 17 17 17 17 17 17 17 17 17 17 17 17 17 17 17 18 18 18 19 19 20 20 20 21 21 21 22 22 22
18 19 19 19 19 19 19 19 19 20 20 19 19 17 16 16 16 15 15 14 14 14 14 14 14 14 14 14 14 14 14 15 15 16 17 18 18 18 18 18 18 18 18 18 18 18 18 18 18 18 18 18 18 18 18 18 18 18 18 18 18 17 17 17 17 17 17 17 17 17 17 18 18 18 19 19 19 20 20 20 20 21 21 21 21
19 19 19 20 20 20 20 19 19 20 20 20 19 17 16 16 15 15 15 14 14 13 13 13 13 13 13 13 14 14 13 13 14 15 16 17 17 18 18 18 18 18 18 18 18 18 18 19 19 18 18 18 18 18 18 18 18 18 18 18 18 18 17 17 17 17 17 17 17 17 17 18 18 18 19 19 19 19 20 20 20 20 20 20 20
20 20 20 20 21 21 20 20 20 20 20 20 19 17 16 15 15 15 15 15 14 13 12 12 12 13 12 12 13 13 13 12 13 13 14 15 16 17 17 18 18 18 18 18 18 18 18 19 19 19 19 18 18 18 18 18 18 18 18 18 17 17 17 17 17 17 17 17 17 17 18 18 18 19 19 19 19 19 19 19 19 19 19 19 19
21 21 21 21 21 21 21 20 20 20 20 20 19 18 16 15 15 15 15 15 14 14 13 12 12 12 12 11 11 12 12 12 12 13 13 14 15 15 16 16 17 17 18 18 18 18 18 18 19 19 19 19 19 18 18 18 18 18 18 17 17 17 17 16 16 16 17 17 17 17 17 18 18 18 18 18 19 19 19 19 19 18 18 18 17
22 21 21 21 21 21 21 21 20 20 20 20 19 18 17 15 15 15 15 15 15 14 14 13 13 12 12 11 11 11 11 12 12 12 12 13 13 14 15 15 16 16 17 17 18 18 18 18 18 19 19 19 19 19 19 18 18 18 18 17 17 16 16 16 16 16 16 16 17 17 17 17 17 17 18 18 18 18 18 18 18 17 17 16 15
21 21 21 21 21 21 21 21 21 20 20 20 19 18 17 16 15 15 15 15 15 14 14 13 13 13 12 12 11 11 11 11 11 11 11 11 11 12 13 14 14 15 15 16 16 17 17 18 18 18 18 19 19 19 19 18 18 18 17 17 17 16 16 16 16 16 16 16 16 16 16 16 16 16 17 17 17 17 17 16 16 15 14 14 13
20 20 20 20 21 21 21 21 21 21 20 20 19 18 18 16 15 15 15 15 14 14 13 13 13 13 13 12 11 11 11 11 10 10 10 10 10 10 11 12 13 13 14 14 15 15 16 17 17 17 17 18 18 18 18 18 17 17 17 17 16 16 16 15 15 15 15 15 15 15 15 15 15 16 16 16 15 15 14 14 13 13 12 11 11
20 20 20 20 21 22 22 22 22 21 21 20 19 19 18 17 16 15 15 15 14 14 13 13 12 13 13 12 11 11 10 10 9 9 9 9 9 10 10 10 11 12 12 13 13 14 14 15 15 15 16 16 16 17 17 17 16 16 16 16 16 15 15 15 14 14 14 14 14 14 14 14 14 14 14 14 13 13 12 12 11 10 10 9 9
Wind_Direction
306 305 302 300 298 296 294 294 294 295 296 294 284 272 264 258 253 250 247 246 248 250 251 251 247 239 234 232 229 226 224 223 224 224 224 224 224 223 222 221 222 224 224 224 224 225 226 226 226 227 229 229 230 232 234 236 236 236 238 239 241 242 244 247 250 251 253 253 250 247 246 246 246 243 239 239 237 235 235 235 235 235 236 237 239
309 308 307 304 301 299 295 294 293 294 294 293 287 275 264 258 255 252 248 248 250 249 250 249 243 236 232 231 229 226 225 225 225 224 224 224 224 223 221 220 221 223 223 222 223 225 225 226 227 228 230 230 231 233 234 235 235 236 238 239 241 242 243 245 248 250 251 251 249 247 246 245 245 242 239 239 237 236 236 237 237 238 239 240 242
310 310 310 308 305 302 298 295 293 292 292 291 288 279 268 261 257 254 250 250 251 249 248 246 239 234 233 231 229 228 227 227 226 224 225 225 224 224 222 221 222 223 223 223 224 225 225 226 228 229 230 230 231 233 234 234 235 236 237 239 241 242 243 244 247 249 250 249 248 248 247 245 245 243 240 239 238 237 238 239 240 241 242 242 244
312 311 311 311 309 306 302 298 295 292 290 289 287 282 274 266 259 255 252 251 250 248 247 244 239 236 234 231 229 229 229 228 226 225 226 225 225 224 224 224 224 224 223 224 225 226 226 227 228 228 229 230 232 233 233 234 235 236 238 239 241 243 244 244 246 248 249 248 248 248 247 245 245 243 241 240 239 238 239 240 241 242 243 244 246
314 313 313 313 313 312 309 304 299 295 291 287 285 281 276 269 262 256 253 251 250 249 248 244 239 237 234 232 231 231 231 229 226 225 225 225 225 225 224 224 224 224 224 225 225 226 227 228 228 229 230 231 232 234 233 233 234 237 239 241 243 244 245 245 246 247 248 248 247 247 247 246 246 244 242 242 241 241 241 241 243 244 246 247 249
315 315 315 315 315 315 314 311 305 299 294 289 285 280 274 269 262 256 254 253 252 252 250 245 240 237 234 232 232 232 231 228 226 225 225 224 224 224 224 223 223 223 225 226 226 227 228 229 229 230 231 232 233 234 234 233 234 237 239 241 243 244 245 246 246 246 246 247 247 247 246 245 246 245 244 243 243 243 243 244 245 247 249 250 251
316 316 316 315 315 316 316 314 310 304 298 292 287 281 274 268 262 257 255 255 254 253 250 245 241 237 234 232 231 231 229 227 225 225 225 224 224 224 224 224 224 226 227 227 228 229 229 230 230 231 232 233 234 234 234 234 236 237 239 241 243 244 246 246 246 246 246 247 248 247 245 244 245 246 245 244 245 246 246 248 249 249 250 252 254
317 316 315 315 316 316 316 315 313 309 302 296 289 283 276 269 263 259 256 256 256 255 251 246 242 238 235 232 230 230 229 226 225 225 226 225 224 224 224 225 227 228 228 228 229 230 230 231 232 233 233 234 234 235 235 236 237 237 239 242 244 244 246 246 246 247 247 248 248 246 244 243 244 244 244 245 246 248 248 248 250 251 251 253 256
316 317 317 317 316 316 316 316 315 312 307 300 293 285 278 271 265 261 257 256 257 257 254 248 243 238 235 232 230 229 229 227 225 224 225 225 224 224 225 227 228 229 229 229 230 231 231 233 234 234 234 234 234 235 236 237 239 240 242 243 244 244 246 247 247 247 248 248 247 245 243 243 242 242 242 244 247 249 249 248 250 252 253 255 257
315 317 318 318 317 316 317 318 318 316 311 304 297 289 281 274 267 263 258 256 257 257 255 250 243 238 234 232 230 230 230 229 227 226 226 226 225 225 226 228 228 229 229 230 231 231 232 234 235 234 234 234 234 235 236 237 239 242 244 244 244 245 245 246 247 247 247 247 246 244 243 243 241 240 242 245 247 249 250 249 250 252 254 257 259
315 317 318 318 317 317 317 319 320 320 317 310 303 295 287 278 271 265 260 257 256 257 255 250 243 237 235 233 231 230 230 229 227 227 227 227 226 226 228 228 228 229 229 230 230 231 232 233 234 233 233 234 235 236 237 238 240 243 244 244 245 245 245 246 247 247 247 247 246 243 241 242 241 241 244 246 248 249 250 250 250 253 255 257 260
315 316 318 319 319 318 318 319 321 323 321 316 309 302 294 284 277 271 264 258 255 255 255 250 243 237 235 233 232 232 230 228 227 226 226 226 227 228 229 229 229 229 229 230 230 231 232 232 232 233 233 234 236 237 237 239 241 242 243 244 245 246 247 247 247 247 247 246 245 243 242 242 243 243 244 247 249 250 251 251 252 254 256 258 260
315 316 317 319 320 320 320 321 322 323 324 321 314 307 300 291 282 276 270 263 256 253 253 250 244 238 235 234 233 233 230 228 228 227 226 226 226 227 229 229 230 230 230 231 231 231 231 231 231 232 233 233 235 236 237 239 241 241 242 244 245 246 247 248 248 248 247 246 246 245 244 244 245 245 246 248 250 250 251 252 254 255 258 260 262
315 316 317 318 320 320 321 322 323 324 324 323 319 312 306 298 288 280 274 268 261 255 252 250 245 240 237 236 235 234 231 229 228 226 225 224 225 226 228 228 229 230 230 231 231 231 231 232 232 232 232 233 233 234 236 238 239 241 242 244 245 247 247 247 247 247 247 247 247 246 246 245 245 245 247 249 251 252 252 254 256 258 260 262 264
314 317 318 318 318 319 321 322 323 324 324 324 322 317 311 306 297 286 277 271 265 259 254 250 246 242 240 238 236 234 231 230 228 226 224 224 224 226 227 228 229 229 230 231 232 232 233 233 233 233 232 232 233 234 235 237 239 240 241 243 245 246 248 248 248 247 247 246 247 247 248 247 244 245 248 250 252 254 255 256 257 259 261 263 265
313 316 318 319 319 318 320 322 323 324 324 325 325 321 317 313 306 294 282 273 267 261 257 252 248 244 242 240 237 235 233 231 229 227 226 225 225 226 227 228 229 230 231 232 233 234 234 235 234 233 233 233 234 234 235 237 238 239 240 241 243 245 247 249 249 247 246 245 246 246 246 245 243 244 248 251 252 253 255 256 258 260 262 264 266
313 315 317 319 320 319 320 322 324 325 325 326 327 326 323 319 315 304 289 278 269 263 259 255 250 246 244 242 239 237 235 234 231 230 229 227 226 227 228 228 230 231 231 233 234 235 235 236 234 232 232 233 234 234 235 236 236 237 237 238 240 242 244 246 246 245 243 243 243 243 243 243 242 245 248 251 252 254 255 257 260 262 264 267 269
313 314 315 317 319 320 321 322 324 325 326 326 326 326 325 324 321 313 300 287 275 266 261 257 253 248 245 244 242 239 237 237 234 232 231 230 228 227 228 229 229 231 231 233 234 234 235 236 235 232 231 233 233 233 234 235 236 236 236 237 238 239 240 241 242 242 241 241 242 241 241 242 243 246 249 252 255 257 258 260 262 264 266 268 270
312 312 313 314 317 320 321 321 322 322 324 324 324 324 325 325 322 317 307 295 282 270 263 260 258 253 248 245 243 241 239 237 236 234 233 232 230 229 229 229 229 230 231 231 232 234 235 236 237 235 232 232 232 233 234 235 236 236 236 236 237 238 238 238 240 241 241 241 243 243 243 244 246 249 252 255 257 259 261 262 263 265 267 269 270
311 311 311 312 313 316 318 320 320 320 320 320 320 321 323 324 324 321 312 299 289 279 269 261 259 257 253 247 243 241 239 237 237 236 235 234 232 231 230 229 229 229 229 230 232 233 234 235 237 236 232 230 231 233 235 236 237 237 237 237 237 238 238 239 241 242 242 243 245 245 245 246 248 251 254 257 259 261 263 264 265 267 269 270 271
310 310 310 310 311 312 314 316 318 319 319 317 316 316 317 319 321 322 318 308 297 289 280 268 259 256 254 249 244 241 239 238 237 237 236 235 233 231 230 229 229 229 229 231 232 232 233 235 235 234 231 230 231 232 234 237 238 239 239 240 239 239 239 241 242 243 244 245 246 247 248 249 250 253 255 258 260 262 265 267 268 269 270 271 272
308 309 310 310 310 310 311 312 314 316 318 318 318 317 315 315 315 315 316 316 310 302 294 280 265 255 250 249 247 244 242 241 238 236 236 234 232 230 229 229 230 230 230 231 231 232 233 234 233 232 230 229 231 233 235 237 239 240 241 241 241 241 241 242 242 242 244 245 247 249 251 253 255 257 259 260 262 264 266 268 269 270 271 272 273
308 308 309 310 310 310 310 310 311 312 314 315 317 319 318 317 316 313 312 312 311 310 305 292 277 263 252 248 248 246 245 244 241 236 234 233 231 230 228 228 229 229 228 229 230 231 231 232 231 231 230 230 232 234 236 238 240 241 241 241 241 241 241 242 243 242 244 247 248 251 254 256 258 260 261 263 264 266 267 269 270 270 272 273 275
310 309 309 310 310 310 310 310 309 310 311 312 313 316 317 318 318 318 316 313 309 308 308 303 290 275 262 254 250 247 245 244 242 237 233 231 230 228 227 226 226 226 225 225 226 227 227 227 228 229 229 230 232 234 236 239 240 240 241 241 242 243 243 243 243 244 245 248 250 252 255 257 259 262 263 264 266 267 268 269 270 271 272 275 277
312 310 310 310 310 310 310 310 310 310 310 310 311 311 313 315 316 317 319 319 315 309 307 307 302 288 273 262 256 251 246 243 241 237 234 230 227 226 226 225 225 225 224 223 223 225 225 225 225 227 228 230 233 234 235 237 238 240 242 244 245 245 244 244 245 246 247 248 250 253 256 258 261 263 265 266 266 267 268 270 271 272 274 276 278
312 310 308 308 308 309 309 309 310 310 310 310 310 309 309 310 311 312 314 316 317 312 308 307 305 297 283 271 263 256 250 246 243 239 237 233 228 226 225 224 225 225 224 224 225 226 226 226 226 228 230 234 237 237 235 236 238 240 242 243 244 243 243 244 246 248 249 250 253 256 259 262 264 265 266 266 267 269 270 271 272 273 274 276 278
311 309 307 305 304 305 306 306 306 307 308 309 308 308 308 307 307 307 307 308 310 310 307 306 304 299 291 281 272 262 254 248 245 242 239 236 231 229 227 226 225 225 224 224 225 225 225 225 227 230 232 234 236 237 238 240 241 241 240 241 242 244 246 248 249 250 252 254 257 260 262 263 264 265 266 268 269 270 272 272 273 274 275 277 278
311 310 307 304 302 302 302 302 302 301 302 304 305 305 306 305 304 305 304 303 302 301 300 301 301 300 295 288 282 274 263 253 247 243 240 236 232 230 229 227 226 225 225 225 224 224 224 226 229 233 234 235 236 239 241 242 242 242 242 243 244 247 249 252 253 254 255 257 259 260 261 262 262 264 266 268 270 272 273 274 275 275 276 277 278
314 313 310 307 303 301 300 300 299 298 297 298 298 300 301 301 301 302 303 302 299 297 295 293 293 294 294 290 285 282 276 263 250 243 240 236 232 229 227 226 225 225 225 226 227 228 230 232 235 237 237 237 239 241 242 242 243 244 245 244 245 248 251 253 255 257 259 260 260 260 259 259 260 262 265 268 270 273 274 275 275 276 277 278 280
316 315 314 313 309 305 301 300 299 298 297 295 294 293 295 297 298 298 299 300 299 297 293 290 287 284 283 284 283 279 278 273 258 246 241 236 232 229 228 228 228 228 229 230 232 233 233 234 237 240 240 241 243 244 245 246 246 247 246 246 247 250 252 253 254 256 257 258 258 257 257 258 260 263 265 268 270 272 273 274 274 276 278 279 281
318 317 316 316 314 310 306 304 301 299 298 296 294 292 291 292 293 294 295 297 297 297 293 290 288 283 276 274 274 272 272 272 268 258 248 239 234 232 231 232 233 234 235 235 236 237 236 237 240 243 244 245 246 247 247 247 247 247 247 248 249 250 251 252 253 253 254 254 254 255 256 259 262 264 266 268 269 270 272 273 275 277 279 281 283
318 317 316 316 316 314 311 308 306 303 300 298 296 295 292 291 290 289 290 292 293 294 293 291 289 286 280 273 270 269 268 266 263 260 254 245 239 236 236 236 237 237 238 239 239 239 240 241 244 245 245 246 247 247 246 245 245 245 246 246 248 249 249 250 251 251 252 253 254 256 258 260 262 264 265 267 269 270 273 275 277 279 281 283 285
321 319 317 316 315 314 313 311 309 308 305 301 299 297 294 292 290 289 289 289 289 289 289 288 287 285 283 279 274 270 268 266 262 258 254 249 242 237 236 237 238 238 239 239 238 238 239 241 243 244 244 245 245 245 244 243 243 243 243 243 244 245 246 247 249 251 252 254 255 256 258 259 261 263 265 267 269 272 274 276 278 280 282 284 286
327 325 321 318 315 313 312 311 309 308 307 305 302 299 296 294 292 290 290 290 290 288 285 284 284 282 281 280 278 274 270 267 265 262 259 256 252 247 243 241 242 243 242 240 238 237 238 240 241 241 241 241 242 242 241 240 239 239 240 240 241 242 244 247 249 251 253 254 256 257 258 260 262 264 266 268 270 272 275 277 280 282 284 286 288
333 331 328 324 320 316 313 311 309 307 306 305 303 301 300 297 295 292 290 289 290 289 286 283 282 280 277 276 276 276 273 270 267 264 262 260 258 257 254 252 250 248 245 243 241 239 240 240 239 238 238 238 238 237 236 235 235 237 239 240 241 243 245 247 249 251 253 255 257 258 260 261 263 265 267 269 272 274 277 279 282 285 287 289 291
339 337 335 332 327 322 318 315 312 309 306 304 302 301 300 299 297 295 293 290 288 287 285 283 281 279 276 274 273 273 272 270 268 267 265 263 260 258 255 254 253 251 248 247 245 243 242 240 238 237 236 234 233 232 232 233 234 236 237 238 239 240 242 245 248 251 253 255 256 259 260 263 265 268 271 273 276 278 281 283 286 288 290 291 292
344 342 341 339 336 331 327 323 319 315 310 307 304 301 299 298 297 296 295 293 290 287 285 283 282 281 278 275 273 272 270 268 266 265 265 264 261 257 253 251 251 251 250 249 248 247 246 243 241 239 237 236 234 233 233 233 234 235 237 238 239 241 243 246 249 251 253 256 258 261 264 267 271 274 276 279 281 283 284 286 287 289 291 291 292
347 346 345 343 342 340 337 333 329 324 319 314 310 306 302 299 298 296 295 293 292 289 286 284 285 284 280 276 273 271 269 267 266 264 263 262 261 257 254 252 251 250 249 249 249 248 247 245 244 242 240 238 236 236 236 236 237 238 239 240 242 244 247 250 253 255 258 260 263 266 270 273 275 278 280 282 283 285 286 287 288 289 291 293 295
347 347 347 345 345 344 343 340 337 333 328 323 318 314 309 305 301 298 295 293 292 289 287 286 288 287 283 278 274 270 267 266 266 264 262 261 259 257 256 254 252 251 251 250 250 248 247 245 243 241 240 239 238 238 239 240 240 242 243 244 246 248 251 253 256 258 261 264 267 270 272 274 276 279 281 283 284 286 288 289 291 292 294 296 297
347 347 347 346 346 345 343 342 340 338 334 330 325 321 316 312 308 304 300 296 293 290 288 288 290 290 286 282 279 272 265 263 263 262 261 260 258 257 256 254 253 252 251 250 249 247 245 243 241 240 240 241 241 242 243 243 244 245 247 249 250 252 254 257 259 261 264 266 268 271 273 275 278 280 282 284 286 289 290 292 293 295 296 298 299
347 347 347 346 346 345 343 342 341 339 337 333 330 325 321 317 313 309 306 301 297 294 291 290 290 291 288 286 283 276 266 261 260 260 260 260 258 255 254 253 252 251 250 249 246 244 241 240 240 240 241 242 243 243 244 245 246 248 250 252 254 255 258 261 263 264 266 269 271 273 275 278 281 283 285 286 288 291 293 294 295 296 298 299 300
347 347 347 346 345 344 344 342 340 338 336 334 332 329 326 323 319 315 311 306 301 298 296 293 292 291 288 286 285 280 271 264 261 259 259 260 258 254 252 251 250 248 247 246 244 243 241 241 241 241 242 243 243 244 244 246 248 250 252 253 255 257 259 261 263 265 268 270 272 274 277 279 282 284 286 288 290 293 294 296 297 298 299 300 301
349 347 346 345 344 343 342 342 340 339 337 335 332 330 328 327 325 322 318 312 306 301 299 296 295 293 289 285 284 281 274 269 265 261 259 258 257 254 251 250 249 248 246 245 245 245 245 244 244 244 245 245 245 246 247 248 249 251 253 254 256 258 260 262 264 266 268 270 272 275 278 280 283 285 287 289 292 294 296 297 298 299 300 302 302
350 348 346 344 343 342 341 340 340 340 338 336 333 330 328 327 328 327 325 320 314 308 303 300 298 296 292 287 284 282 277 272 268 264 260 257 256 254 251 250 249 249 247 247 247 247 247 247 247 247 248 248 249 249 249 250 250 252 253 255 257 259 261 263 265 267 269 270 273 276 279 281 284 286 288 291 292 294 296 298 299 299 300 302 303
350 348 346 344 343 343 342 341 340 340 339 338 336 332 329 327 328 329 329 327 322 317 311 306 303 301 297 291 287 285 281 275 270 266 262 258 257 255 252 250 250 250 249 248 248 248 248 248 248 249 250 250 250 251 251 252 253 254 255 258 260 261 263 264 265 266 268 271 274 277 280 283 285 288 289 291 292 293 295 297 298 300 301 302 303
349 347 345 344 342 342 342 341 341 341 341 340 338 334 331 330 329 329 330 330 327 323 319 314 309 306 303 297 291 288 285 280 274 269 265 261 259 256 254 252 251 251 250 250 249 248 248 248 249 249 250 250 252 253 254 254 255 256 257 260 261 262 262 263 264 266 268 272 276 279 281 283 285 287 289 290 292 293 294 295 297 299 301 302 304
346 345 344 342 341 341 340 340 341 341 341 341 339 336 333 331 330 329 329 329 328 325 323 320 316 312 308 303 298 293 289 285 279 273 269 265 262 259 256 254 252 251 251 251 250 249 249 249 249 249 250 250 252 254 255 256 256 256 257 258 259 260 260 261 263 265 269 273 276 279 281 283 285 286 288 290 291 292 294 294 296 298 300 302 304
344 343 343 342 342 341 340 340 340 340 340 340 340 337 334 332 330 329 328 327 327 325 324 323 322 319 313 308 303 298 293 289 282 276 271 269 266 262 259 256 255 253 252 251 251 250 250 249 249 249 250 251 252 254 255 256 255 254 254 255 256 257 258 259 262 266 269 273 276 278 281 283 285 287 289 291 291 292 293 294 295 297 300 302 304
342 343 343 343 343 342 342 341 340 339 339 339 338 337 335 332 330 329 328 327 327 326 325 324 324 323 319 314 308 303 299 294 288 281 275 272 269 266 262 258 257 256 254 253 252 251 250 250 250 250 250 252 253 254 254 254 252 251 252 253 254 255 257 259 262 265 268 271 275 278 281 284 287 289 291 292 293 293 294 294 294 295 298 300 301
344 343 343 343 343 343 342 340 340 339 338 337 337 336 334 331 329 327 326 326 326 326 326 325 324 324 322 319 315 312 307 301 294 287 280 274 272 270 266 262 259 258 256 254 253 251 250 249 249 251 252 253 253 252 252 250 249 249 249 250 252 254 256 259 261 264 267 271 274 278 282 286 289 292 294 294 294 294 295 294 293 292 293 295 298
345 344 343 343 343 343 341 340 339 337 336 335 334 333 331 329 327 324 322 322 323 323 324 324 323 324 324 324 322 319 315 308 300 292 285 279 275 274 271 268 264 260 258 256 254 253 251 250 250 252 253 253 252 250 248 247 246 246 246 247 249 252 255 257 260 263 267 271 275 279 282 286 291 294 295 295 295 294 294 293 290 288 288 291 295